Back to catalog

COSMOS 2491 DEB

LostPO
NORAD 44913·DEBRIS·🇷🇺 Russia

Launched Dec 25, 2013 from Plesetsk Cosmodrome

Loading…

Next Passes (next 24 hours)

TLE

StaleSource: Space-Track

Epoch: Jan 27, 2020, 18:15 UTC

1 44913U 13076G   20027.76047500  .00001435  00000-0  91773-2 0  9990
2 44913  82.4669 182.7650 0057233 357.9465   2.0076 12.51219187  3124

Track COSMOS 2491 DEB in real time with AllMySat

Download on the App Store